[[{"header":{"parameterUnit":"m.s-1","parameterCategory":1,"la1":30.2991,"la2":30.254,"lo1":-89.0895,"lo2":-89.0444,"dy":0.0017,"dx":0.0017,"nx":28,"ny":28,"refTime":"2023-08-23T09:00:00:Z","depth":0,"parameterNumber":2,"parameterNumberName":"U-component_of_WINDS"},"data":[0,0,0,0,0,0,0,0,0,0,0,0,0,0,0,0,0,0,0,0,0,0,0,0,0,0,0,0,0,0,0,0,0,0,0,0,0,0,0,0,0,0,0,0,0,0,0,0,0,0,0,0,0,0,0,0,0,0,0.3942,0.3944,0,0.415,0.4152,0.4154,0.422,0.4219,0.4218,0.4217,0.4435,0.4442,0.4448,0,0,0,0,0,0,0,0,0,0,0,0,0,0.3606,0.3612,0.3942,0.3945,0.3947,0.4149,0.4152,0.4155,0.422,0.4219,0.4218,0.4216,0.4433,0.4441,0.4449,0,0,0,0,0,0,0,0,0,0,0,0,0,0.3777,0.3614,0.3942,0.4004,0.4012,0.4149,0.4152,0.4156,0.422,0.4219,0.4217,0.4216,0.443,0.444,0.445,0.4542,0,0,0.4481,0.4485,0,0,0,0,0,0,0,0,0.3767,0.3789,0.3992,0.4,0.4009,0.4157,0.4114,0.4285,0.4221,0.4141,0.4217,0.4215,0.4344,0.4361,0.4404,0.4552,0.4561,0.4482,0.4488,0.4492,0.4495,0,0,0,0,0,0,0,0.3755,0.378,0.4024,0.3995,0.4005,0.4023,0.4045,0.4146,0.4249,0.4148,0.4153,0.4177,0.4348,0.4394,0.4409,0.4565,0.4481,0.449,0.4497,0.4501,0.4797,0.4798,0,0,0,0,0,0,0.3732,0.377,0.4018,0.4031,0.3881,0.403,0.4055,0.4111,0.4248,0.4267,0.4178,0.4179,0.4377,0.4397,0.4417,0.4532,0.4492,0.4502,0.4507,0.4795,0.4797,0.4799,0,0,0,0,0,0,0.3724,0.3753,0.4009,0.3902,0.3936,0.4037,0.41,0.4116,0.4161,0.427,0.4289,0.4205,0.4377,0.4403,0.4509,0.4541,0.4506,0.4515,0.4793,0.4796,0.4798,0.4763,0,0,0,0,0,0,0.3715,0.375,0.3786,0.3902,0.3941,0.4097,0.4101,0.4121,0.4178,0.4181,0.4301,0.4319,0.4378,0.4494,0.4519,0.4554,0.4523,0.479,0.4794,0.4797,0.4762,0.4765,0.4767,0,0,0,0,0,0.3702,0.3769,0.3787,0.3817,0.3987,0.4099,0.4121,0.4186,0.418,0.4217,0.4286,0.4315,0.4533,0.4504,0.4534,0.4572,0.4789,0.4793,0.4797,0.4761,0.4764,0.4767,0,0,0,0,0,0,0.3656,0.3786,0.3807,0.3913,0.3994,0.4109,0.4158,0.4187,0.4273,0.4273,0.4351,0.4378,0.4478,0.4536,0.4502,0.4666,0.4662,0.4672,0.4625,0.4629,0.4631,0.4615,0.4532,0,0,0,0,0,0.3658,0.3736,0.3846,0.3929,0.3968,0.4056,0.4107,0.4149,0.4237,0.4272,0.435,0.4435,0.4523,0.4579,0.4666,0.4771,0.4797,0.4811,0.4813,0.4814,0.4822,0.488,0.4888,0.4812,0.4812,0.4812,0,0,0.3664,0.3744,0.3789,0.3922,0.399,0.407,0.4084,0.4169,0.423,0.4286,0.439,0.445,0.455,0.4655,0.4706,0.4707,0.4849,0.482,0.482,0.4827,0.4885,0.4892,0.4899,0.4815,0.4815,0.4814,0,0,0.3714,0.3783,0.3859,0.3925,0.4027,0.4084,0.4102,0.4212,0.4253,0.4359,0.4402,0.4475,0.4625,0.4694,0.4749,0.4822,0.4852,0.4849,0.486,0.4916,0.4922,0.4927,0.4953,0.4961,0.4856,0.4856,0.4856,0,0.3709,0.383,0.3895,0.3976,0.4033,0.4085,0.4162,0.4225,0.435,0.4388,0.4387,0.4574,0.4645,0.4767,0.4784,0.4827,0.485,0.4836,0.4915,0.4922,0.4928,0.4953,0.4962,0.4855,0.4855,0.4855,0.4855,0,0.3817,0.39,0.395,0.4066,0.4129,0.4208,0.4285,0.4341,0.4377,0.4435,0.4541,0.4628,0.4732,0.4764,0.4802,0.489,0.4887,0.49,0.4897,0.4933,0.4957,0.4968,0.4853,0.4854,0.4854,0.4854,0,0,0.3846,0.3995,0.4012,0.4064,0.4179,0.4245,0.4326,0.4426,0.4472,0.4556,0.4626,0.475,0.4761,0.4823,0.4869,0.4917,0.4968,0.4924,0.4927,0.4928,0.507,0.5059,0.5069,0.4988,0.499,0.4992,0.5061,0,0.391,0.4056,0.4116,0.4234,0.4311,0.436,0.4431,0.4509,0.4564,0.4638,0.4701,0.4786,0.4795,0.4832,0.4883,0.4951,0.4997,0.4947,0.5054,0.5057,0.5027,0.5082,0.5072,0.5133,0.5071,0.5073,0.5074,0,0.4005,0.4087,0.4212,0.4314,0.4349,0.4411,0.4506,0.4576,0.4666,0.4703,0.477,0.4812,0.49,0.489,0.5012,0.4976,0.5024,0.5063,0.5067,0.508,0.5067,0.5095,0.5154,0.5163,0.509,0.5089,0.5087,0,0.4012,0.4154,0.4246,0.429,0.4412,0.4454,0.4508,0.4595,0.4651,0.4734,0.4771,0.4864,0.4915,0.4987,0.5053,0.504,0.5168,0.5164,0.5201,0.5199,0.5226,0.5223,0.5292,0.5257,0.5257,0.5257,0.5256,0,0.4078,0.4152,0.425,0.4307,0.4391,0.4459,0.4541,0.4599,0.4675,0.4745,0.4794,0.4858,0.4942,0.5017,0.507,0.5161,0.5184,0.5217,0.523,0.5212,0.5208,0.5244,0.5242,0.5259,0.5258,0.5258,0.5258,0,0.41,0.4169,0.4272,0.4379,0.4407,0.4464,0.4556,0.4613,0.467,0.4756,0.4781,0.487,0.4961,0.5033,0.5153,0.5188,0.5284,0.5299,0.5253,0.526,0.5291,0.5287,0.5386,0.5402,0.5356,0.5356,0.5356,0,0.4137,0.4194,0.4306,0.4354,0.4406,0.4485,0.454,0.4609,0.4666,0.477,0.4814,0.4908,0.4986,0.5128,0.5205,0.5295,0.5313,0.5341,0.5327,0.5307,0.5312,0.5308,0.5313,0.5343,0.5343,0.5343,0.5343,0,0.4194,0.4225,0.4302,0.4391,0.4456,0.453,0.4605,0.4642,0.4725,0.4786,0.4877,0.4938,0.5057,0.5149,0.5248,0.5304,0.5337,0.5346,0.536,0.5342,0.5312,0.5328,0.5256,0.5344,0.5344,0.5344,0.5344,0.5344,0.4225,0.4278,0.4363,0.4448,0.4511,0.4579,0.4637,0.47,0.4777,0.4878,0.4914,0.5008,0.5095,0.523,0.5286,0.5361,0.5364,0.5383,0.5388,0.5392,0.5389,0.53,0.5379,0.5379,0.5379,0.538,0.538,0,0.4284,0.4341,0.4418,0.452,0.4586,0.4609,0.4693,0.4747,0.4828,0.4905,0.498,0.5084,0.5173,0.5255,0.5348,0.5392,0.5409,0.5414,0.5411,0.5423,0.5381,0.536,0.5398,0.5398,0.5398,0.5398,0.5398,0.5398,0.4323,0.4413,0.4453,0.4574,0.4631,0.4722,0.4767,0.4831,0.4892,0.5006,0.5078,0.513,0.521,0.5308,0.539,0.5412,0.5444,0.5444,0.547,0.5429,0.5426,0.5424,0.5404,0.545,0.545,0.5505,0.5506,0.5506]},{"header":{"parameterUnit":"m.s-1","parameterCategory":1,"la1":30.2991,"la2":30.254,"lo1":-89.0895,"lo2":-89.0444,"dy":0.0017,"dx":0.0017,"nx":28,"ny":28,"refTime":"2023-08-23T09:00:00:Z","depth":0,"parameterNumber":3,"parameterNumberName":"V-component_of_WINDS"},"data":[0,0,0,0,0,0,0,0,0,0,0,0,0,0,0,0,0,0,0,0,0,0,0,0,0,0,0,0,0,0,0,0,0,0,0,0,0,0,0,0,0,0,0,0,0,0,0,0,0,0,0,0,0,0,0,0,0,0,2.8806,2.8806,0,2.8794,2.8793,2.8793,2.8754,2.8753,2.8752,2.8752,2.8735,2.8735,2.8736,0,0,0,0,0,0,0,0,0,0,0,0,0,2.8786,2.8786,2.8806,2.8806,2.8805,2.8794,2.8793,2.8793,2.8754,2.8753,2.8752,2.8751,2.8735,2.8735,2.8736,0,0,0,0,0,0,0,0,0,0,0,0,0,2.8786,2.8786,2.8806,2.8785,2.8783,2.8794,2.8793,2.8793,2.8755,2.8753,2.8752,2.8751,2.8735,2.8735,2.8736,2.8765,0,0,2.8737,2.8738,0,0,0,0,0,0,0,0,2.8786,2.8787,2.8788,2.8786,2.8784,2.8774,2.878,2.8784,2.8755,2.8765,2.8752,2.875,2.8749,2.8748,2.8749,2.8764,2.8763,2.8737,2.8738,2.8738,2.8738,0,0,0,0,0,0,0,2.8786,2.8787,2.8801,2.8788,2.8785,2.8773,2.8771,2.8781,2.8764,2.8764,2.8761,2.8761,2.8747,2.8748,2.8748,2.8763,2.8737,2.8738,2.8738,2.8738,2.8792,2.8793,0,0,0,0,0,0,2.879,2.8787,2.8801,2.88,2.8782,2.8774,2.8773,2.8779,2.8764,2.8761,2.8762,2.8759,2.8748,2.8747,2.8747,2.8774,2.8738,2.8739,2.8739,2.8791,2.8793,2.8794,0,0,0,0,0,0,2.879,2.8792,2.8802,2.8793,2.8793,2.8776,2.8783,2.8779,2.878,2.8762,2.8758,2.8766,2.8747,2.8746,2.8759,2.8773,2.8739,2.8739,2.879,2.8792,2.8793,2.8833,0,0,0,0,0,0,2.8789,2.8792,2.8806,2.8794,2.8794,2.8817,2.8784,2.878,2.8781,2.8777,2.8765,2.8762,2.8746,2.8758,2.876,2.8774,2.874,2.8789,2.8791,2.8793,2.883,2.8836,2.8841,0,0,0,0,0,2.8789,2.8818,2.8807,2.8808,2.8811,2.8818,2.8818,2.88,2.8783,2.8794,2.8781,2.8762,2.8772,2.876,2.8761,2.8776,2.8788,2.879,2.8793,2.8828,2.8835,2.8841,0,0,0,0,0,0,2.8833,2.8817,2.8804,2.8831,2.8826,2.8812,2.8826,2.8809,2.8808,2.8805,2.878,2.8778,2.8792,2.8785,2.8772,2.8798,2.8776,2.8779,2.8803,2.8809,2.8814,2.8814,2.874,0,0,0,0,0,2.8846,2.8855,2.8839,2.8864,2.8863,2.8844,2.8847,2.8833,2.8827,2.8824,2.8813,2.8806,2.8806,2.8807,2.8808,2.8829,2.8822,2.8839,2.8844,2.8848,2.885,2.8854,2.8859,2.8802,2.8802,2.8802,0,0,2.8873,2.8865,2.8872,2.8873,2.8868,2.8874,2.8843,2.8853,2.8856,2.8825,2.8836,2.8826,2.8816,2.8831,2.8838,2.8826,2.8864,2.8851,2.8855,2.8854,2.8857,2.8862,2.8867,2.8804,2.8803,2.8803,0,0,2.8923,2.8921,2.8938,2.8932,2.8924,2.891,2.8914,2.8901,2.8894,2.8904,2.8878,2.888,2.8884,2.8875,2.8871,2.8911,2.8891,2.8911,2.8938,2.8941,2.8946,2.895,2.8959,2.8963,2.8914,2.8914,2.8914,0,2.8957,2.8968,2.8949,2.8958,2.8956,2.8927,2.8941,2.8936,2.8928,2.8926,2.8913,2.8912,2.8903,2.8913,2.8921,2.8921,2.8921,2.8912,2.8947,2.8951,2.8954,2.8962,2.8966,2.8916,2.8916,2.8915,2.8915,0,2.9007,2.9014,2.9028,2.902,2.9019,2.9032,2.901,2.9011,2.8995,2.8982,2.8988,2.8976,2.897,2.8971,2.8957,2.8976,2.8969,2.8952,2.8929,2.8962,2.8969,2.8972,2.8919,2.8918,2.8918,2.8917,0,0,2.9088,2.9064,2.9069,2.9062,2.9048,2.9051,2.9059,2.9053,2.9052,2.9046,2.9048,2.9048,2.903,2.9025,2.9009,2.9013,2.9037,2.8994,2.8994,2.8999,2.9051,2.9062,2.9067,2.9024,2.9025,2.9025,2.9051,0,2.9132,2.9146,2.9125,2.9141,2.9144,2.9113,2.9119,2.9108,2.9094,2.9092,2.9075,2.9074,2.9054,2.9049,2.9052,2.9034,2.9047,2.9032,2.9022,2.9022,2.9024,2.9072,2.9084,2.9109,2.9054,2.9055,2.9055,0,2.9187,2.9181,2.9197,2.9175,2.9176,2.9182,2.917,2.917,2.9155,2.9144,2.9136,2.9115,2.9116,2.9094,2.9092,2.9082,2.9076,2.9066,2.9066,2.9063,2.904,2.9066,2.9118,2.912,2.906,2.906,2.9059,0,2.9237,2.9234,2.9242,2.9237,2.9213,2.9217,2.9207,2.9191,2.9186,2.9175,2.9171,2.9161,2.9155,2.9145,2.912,2.9108,2.9119,2.9097,2.9106,2.9107,2.9109,2.9109,2.9157,2.911,2.911,2.911,2.911,0,2.9287,2.9297,2.9263,2.9268,2.9276,2.925,2.9258,2.9244,2.9229,2.9227,2.92,2.9198,2.9167,2.916,2.914,2.9138,2.9137,2.9125,2.9119,2.9126,2.9127,2.912,2.9117,2.9111,2.9111,2.911,2.911,0,2.9345,2.9324,2.9329,2.9305,2.9298,2.9305,2.9282,2.9283,2.9266,2.9263,2.9261,2.9233,2.9223,2.9197,2.9182,2.9168,2.9169,2.9161,2.9175,2.9171,2.918,2.9178,2.9224,2.9227,2.9181,2.9181,2.9182,0,2.9377,2.9383,2.9358,2.9355,2.9346,2.9342,2.9336,2.9309,2.9304,2.9283,2.9285,2.9273,2.9262,2.9247,2.9223,2.9209,2.9198,2.9214,2.9195,2.92,2.9193,2.9192,2.919,2.9218,2.9219,2.9219,2.922,0,2.9433,2.9421,2.9415,2.9403,2.9396,2.9386,2.9374,2.9372,2.934,2.9335,2.9324,2.9315,2.9297,2.9283,2.9265,2.925,2.9228,2.9226,2.9226,2.9233,2.9239,2.9232,2.9183,2.9225,2.9224,2.9224,2.9224,2.9223,2.9476,2.9478,2.9459,2.9451,2.9439,2.9426,2.9424,2.9405,2.9397,2.938,2.9363,2.9353,2.9331,2.9304,2.9291,2.928,2.9269,2.9271,2.9271,2.9271,2.9273,2.9242,2.9276,2.9276,2.9276,2.9276,2.9276,0,2.9527,2.9513,2.9506,2.9488,2.948,2.9461,2.9444,2.9438,2.943,2.9413,2.9401,2.9386,2.9371,2.9345,2.9327,2.9323,2.9312,2.9319,2.9318,2.9314,2.9286,2.9285,2.9328,2.9328,2.9328,2.9328,2.9328,2.9328,2.9553,2.9553,2.9538,2.9529,2.9514,2.9505,2.9496,2.9483,2.9468,2.9452,2.944,2.9423,2.94,2.938,2.9364,2.9356,2.9349,2.9359,2.9348,2.9321,2.9316,2.9312,2.9311,2.9358,2.9359,2.9376,2.9376,2.9377]}]]